Regional Weather Roundup
Issued by NWS

Home | Current Version | Previous Version | Graphics & Text | Print | Product List | Glossary On
Versions: 1 2 3 4 5 6 7 8 9 10 11 12 13 14 15 16 17 18 19 20 21 22 23 24 25 26 27 28 29 30 31 32 33 34 35 36 37 38 39 40 41 42 43 44 45 46 47 48 49 50
000
ASUS43 KDTX 211010
RWRMI
MICHIGAN HOURLY REGIONAL WEATHER ROUNDUP
NATIONAL WEATHER SERVICE DETROIT/PONTIAC MI
500 AM EST TUE NOV 21 2017

NOTE: "FAIR" INDICATES FEW OR NO CLOUDS BELOW 12,000 FEET WITH NO
SIGNIFICANT WEATHER AND/OR OBSTRUCTION TO VISIBILITY.

MIZ047>049-052>055-059>063-066>070-074>076-081>083-211100-
SOUTHEAST LOWER MICHIGAN

CITY           SKY/WX    TMP DP  RH WIND       PRES   REMARKS
ADRIAN         PTCLDY    36  25  64 SW15      29.74F WCI  27
ALMA           PTCLDY    39  29  66 S13       29.59F WCI  32
ANN ARBOR      CLOUDY    37  25  61 S14       29.71F WCI  28
BAD AXE        CLOUDY    40  26  56 SW16G22   29.59S WCI  32
CARO           CLEAR     39  26  59 S17G23    29.60F WCI  30
DETROIT CITY   CLEAR    N/A N/A N/A SW16G25   29.73F
DETROIT        PTCLDY    39  25  57 SW18      29.74F WCI  30
FLINT          CLEAR     38  25  59 S10       29.65F WCI  31
GROSSE ILE     PTCLDY    40  26  58 SW15G21   29.75F WCI  31
HILLSDALE      CLEAR     37  25  60 S14G20    29.70F WCI  29
HOWELL         CLEAR     38  27  64 S7        29.67S WCI  32

CITY           SKY/WX    TMP DP  RH WIND       PRES   REMARKS
JACKSON        CLEAR     40  25  55 SW17G24   29.69S WCI  31
LAMBERTVILLE   PTCLDY    41  25  51 SW14      29.76F
LANSING        CLEAR     41  27  57 SW15G24   29.65F
LAPEER         FAIR      41  25  54 SW15G25   29.65F
MASON          CLEAR     42  27  55 S9        29.66F
MONROE         PTCLDY    40  24  51 SW14G22   29.75F WCI  33
MT. CLEMENS    CLEAR     40  26  56 SW20      29.70F WCI  31
PONTIAC        CLOUDY    38  26  62 S13       29.68F WCI  30
PORT HOPE        N/A     42  26  53 VRB6      29.55F
PORT HURON     CLEAR     39  23  52 S12G20    29.69F WCI  32
TRI CITIES     PTCLDY    42  29  59 SW16G24   29.58F
MIDLAND        FAIR      41  28  60 SW13G20   29.56F
TROY           CLEAR     40  25  54 S12G17    29.72F WCI  33
SAGINAW HB     CLEAR     41  28  60 SW18G26   29.59F
$$
MIZ043>046-050>051-056>058-064>065-071>073-077>080-211100-
SOUTHWEST LOWER MICHIGAN

CITY           SKY/WX    TMP DP  RH WIND       PRES   REMARKS
BATTLE CREEK   PTCLDY    40  27  59 SW20G28   29.67F WCI  30
BENTON HARBOR  MOCLDY    45  28  51 SW13      29.68S
BIG RAPIDS     CLEAR     44  33  64 SW14G25   29.52F
COLDWATER      PTCLDY    40  25  54 SW14G20   29.70F WCI  32
FREMONT        FAIR      46  36  68 SW20G26   29.55F
HOLLAND        PTCLDY    47  35  63 SW25G36   29.62F
GRAND RAPIDS   CLOUDY    42  30  62 SW13G25   29.61F
IONIA          FAIR      39  28  63 SW13      29.61F WCI  32
KALAMAZOO      PTCLDY    40  26  57 S14       29.67F WCI  32
LUDINGTON      CLOUDY    46  37  70 SW22      29.51S
MARSHALL       PTCLDY    41  26  54 SW15G24   29.67F
MOUNT PLEASANT PTCLDY    43  29  58 SW17      29.55F
MUSKEGON       CLOUDY    47  36  65 SW23G32   29.58F
SOUTH HAVEN    CLOUDY    46  31  55 SW18G32   29.66R
$$
MIZ016>042-211100-
NORTHERN LOWER MICHIGAN

CITY           SKY/WX    TMP DP  RH WIND       PRES   REMARKS
ALPENA         PTCLDY    42  32  67 S10       29.43F
BEAVER ISLAND  CLEAR     47  37  67 SW20G29   29.35R
BELLAIRE       PTCLDY    46  36  69 SW12G24   29.41S
CADILLAC       CLEAR     40  33  75 SW14G21   29.47S WCI  33
CHARLEVOIX     CLEAR     46  35  67 SW10G21   29.40R
FRANKFORT      PTCLDY    48  39  71 SW15G21   29.43F
GAYLORD        PTCLDY    41  31  67 SW18G28   29.39F
GRAYLING       CLEAR     41  32  70 SW13G18   29.45S
HARBOR SPRINGS CLEAR     46  35  66 SW15G24   29.36S
MANISTEE       CLOUDY    47  35  63 SW12G22   29.47F
OSCODA         PTCLDY    40  27  59 SW16G23   29.49F WCI  31
PELLSTON       CLEAR     46  34  62 SW13G18   29.36S
ROGERS CITY    CLEAR     43  33  68 SW17G23   29.38F
TRAVERSE CITY  PTCLDY    47  33  58 SW10G20   29.42F
$$
MIZ007>008-015-211100-
EASTERN UPPER MICHIGAN

CITY           SKY/WX    TMP DP  RH WIND       PRES   REMARKS
KINROSS        CLEAR     44  37  76 SW9       29.32R
MACKINAC ISLAN CLEAR     48  37  64 SW24G35   29.33R
NEWBERRY       CLOUDY    39  32  75 SW13G20   29.31R WCI  32
S. S. MARIE    CLEAR     44  35  70 SW14      29.30R
MUNISING         N/A     38  31  76 S7        29.31R WCI  33
$$
MIZ004>006-011>014-085-211100-
CENTRAL UPPER MICHIGAN

CITY           SKY/WX    TMP DP  RH WIND       PRES   REMARKS
MANISTIQUE     CLEAR     41  28  59 W9        29.33R
ESCANABA       CLEAR     38  30  73 SW7       29.35S WCI  33
MENOMINEE      CLEAR     43  29  57 W9        29.40R
SAWYER-GWINN   MOCLDY    35  29  79 W9        29.31R WCI  27
$$
MIZ001>003-009>011-084-211100-
WESTERN UPPER MICHIGAN

CITY           SKY/WX    TMP DP  RH WIND       PRES   REMARKS
IRON MOUNTAIN  PTCLDY    39  26  59 W10G23    29.34R WCI  32
HOUGHTON       CLOUDY    34  23  64 W33G45    29.28R WCI  20
COPPER HARBOR    N/A     37  30  75 NW14G29   29.24R WCI  28
IRONWOOD       CLOUDY    31  22  69 W17G31    29.42R WCI  19
$$

ABBREVIATIONS USED IN REMARKS
   TC - TEMPERATURE IN CELSIUS
  WCI - WIND CHILL INDEX
   HX - HEAT INDEX
  VSB - VISIBILITY





USA.gov is the U.S. government's official web portal to all federal, state and local government web resources and services.